SFR170 FACT-FALE

Flight info

Callsign SFR170
Flight time N/A
Altitude 37000
Route OKTED1B OKTED UQ12 DUNSA DUNSA1A
Aircraft B738/M-SDE2E3FGHIRWXY/LB1

Departure

Time 2026-05-05 14:25
Airport Cape Town International Airport (FACT)

Arrival

Time N/A
Airport King Shaka International Airport (FALE)
Time Latitude Longitude Altitude Speed Heading
2026-05-05 14:06 -33.96900 18.59803 153 ft 0 kts 255°
2026-05-05 14:18 -33.96899 18.59809 153 ft 3 kts 255°
2026-05-05 14:18 -33.96892 18.59840 153 ft 4 kts 255°
2026-05-05 14:18 -33.96887 18.59866 153 ft 4 kts 270°
2026-05-05 14:18 -33.96894 18.59892 153 ft 4 kts 322°
2026-05-05 14:19 -33.96917 18.59906 153 ft 3 kts 345°
2026-05-05 14:19 -33.96928 18.59909 153 ft 0 kts 345°
2026-05-05 14:21 -33.96912 18.59904 153 ft 6 kts 345°
2026-05-05 14:21 -33.96857 18.59886 153 ft 11 kts 345°
2026-05-05 14:21 -33.96760 18.59855 153 ft 17 kts 345°
2026-05-05 14:21 -33.96641 18.59816 153 ft 18 kts 345°
2026-05-05 14:22 -33.96521 18.59781 153 ft 17 kts 350°
2026-05-05 14:22 -33.96392 18.59755 153 ft 21 kts 350°
2026-05-05 14:22 -33.96258 18.59726 153 ft 14 kts 351°
2026-05-05 14:22 -33.96181 18.59783 152 ft 14 kts 44°
2026-05-05 14:23 -33.96112 18.59866 153 ft 14 kts 45°
2026-05-05 14:23 -33.96046 18.59947 153 ft 11 kts 46°
2026-05-05 14:23 -33.96030 18.59994 153 ft 8 kts 76°
2026-05-05 14:23 -33.96068 18.60032 153 ft 8 kts 165°
2026-05-05 14:24 -33.96128 18.60051 153 ft 15 kts 166°
2026-05-05 14:24 -33.96471 18.60159 156 ft 86 kts 165°
2026-05-05 14:24 -33.97588 18.60516 220 ft 156 kts 165°
2026-05-05 14:24 -33.98313 18.60763 605 ft 162 kts 163°
2026-05-05 14:25 -33.99417 18.61185 1236 ft 174 kts 163°
2026-05-05 14:25 -34.00578 18.61621 1965 ft 175 kts 165°
2026-05-05 14:25 -34.01810 18.62062 2508 ft 195 kts 165°
2026-05-05 14:25 -34.03172 18.62553 2948 ft 215 kts 164°
2026-05-05 14:26 -34.04669 18.63105 3316 ft 233 kts 163°
2026-05-05 14:26 -34.06198 18.63977 3632 ft 261 kts 138°
2026-05-05 14:26 -34.07246 18.65793 4435 ft 266 kts 118°
2026-05-05 14:26 -34.08094 18.67771 5400 ft 267 kts 117°
2026-05-05 14:27 -34.08939 18.69782 6270 ft 270 kts 118°
2026-05-05 14:27 -34.09795 18.71794 7182 ft 269 kts 119°
2026-05-05 14:27 -34.10657 18.73796 8069 ft 271 kts 119°
2026-05-05 14:27 -34.11546 18.75836 8812 ft 277 kts 119°
2026-05-05 14:28 -34.12443 18.77886 9714 ft 277 kts 119°
2026-05-05 14:28 -34.13347 18.79944 10354 ft 286 kts 119°
2026-05-05 14:28 -34.14323 18.82156 10559 ft 311 kts 119°
2026-05-05 14:28 -34.15378 18.84547 10752 ft 334 kts 119°
2026-05-05 14:29 -34.16495 18.87082 11171 ft 347 kts 119°
2026-05-05 14:29 -34.17482 18.89765 11858 ft 353 kts 104°
2026-05-05 14:29 -34.17755 18.92710 12706 ft 354 kts 96°
2026-05-05 14:29 -34.17932 18.95680 13481 ft 356 kts 96°
2026-05-05 14:30 -34.18122 18.98679 14175 ft 359 kts 96°
2026-05-05 14:30 -34.18322 19.01700 14838 ft 362 kts 96°
2026-05-05 14:30 -34.18525 19.04707 15500 ft 365 kts 97°
2026-05-05 14:30 -34.18736 19.07773 16168 ft 367 kts 97°
2026-05-05 14:31 -34.18950 19.10867 16823 ft 370 kts 97°
2026-05-05 14:31 -34.19166 19.13980 17469 ft 374 kts 96°
2026-05-05 14:31 -34.19384 19.17122 18091 ft 377 kts 96°
2026-05-05 14:31 -34.19603 19.20289 18679 ft 380 kts 96°
2026-05-05 14:32 -34.19823 19.23483 19246 ft 382 kts 96°
2026-05-05 14:32 -34.20043 19.26698 19784 ft 385 kts 97°
2026-05-05 14:32 -34.20264 19.29930 20321 ft 387 kts 97°
2026-05-05 14:32 -34.20485 19.33179 20850 ft 390 kts 97°
2026-05-05 14:33 -34.20708 19.36457 21356 ft 393 kts 97°
2026-05-05 14:33 -34.20930 19.39754 21865 ft 395 kts 97°
2026-05-05 14:33 -34.21154 19.43083 22361 ft 398 kts 97°
2026-05-05 14:33 -34.21375 19.46381 22868 ft 400 kts 97°
2026-05-05 14:34 -34.21601 19.49754 23339 ft 403 kts 97°
2026-05-05 14:34 -34.21826 19.53150 23775 ft 406 kts 97°
2026-05-05 14:34 -34.22019 19.56568 24154 ft 410 kts 94°
2026-05-05 14:34 -34.21931 19.60028 24517 ft 415 kts 89°
2026-05-05 14:35 -34.21676 19.63520 24886 ft 418 kts 87°
2026-05-05 14:35 -34.21378 19.66976 25232 ft 420 kts 87°
2026-05-05 14:35 -34.21077 19.70508 25576 ft 423 kts 87°
2026-05-05 14:35 -34.20793 19.74051 25911 ft 426 kts 87°
2026-05-05 14:36 -34.20526 19.77624 26238 ft 428 kts 88°
2026-05-05 14:36 -34.20270 19.81221 26579 ft 431 kts 87°
2026-05-05 14:36 -34.20018 19.84843 26886 ft 434 kts 87°
2026-05-05 14:36 -34.19765 19.88487 27194 ft 436 kts 87°
2026-05-05 14:37 -34.19511 19.92150 27506 ft 439 kts 87°
2026-05-05 14:37 -34.19255 19.95827 27806 ft 441 kts 87°
2026-05-05 14:37 -34.18995 19.99530 28106 ft 443 kts 87°
2026-05-05 14:37 -34.18732 20.03252 28392 ft 446 kts 87°
2026-05-05 14:38 -34.18467 20.06992 28651 ft 448 kts 87°
2026-05-05 14:38 -34.18200 20.10751 28929 ft 451 kts 87°
2026-05-05 14:38 -34.17929 20.14528 29200 ft 453 kts 86°
2026-05-05 14:38 -34.17503 20.18315 29433 ft 457 kts 79°
2026-05-05 14:39 -34.16620 20.22002 29799 ft 458 kts 70°
2026-05-05 14:39 -34.15336 20.25518 30235 ft 456 kts 66°
2026-05-05 14:39 -34.14007 20.28988 30544 ft 456 kts 66°
2026-05-05 14:39 -34.12674 20.32467 30763 ft 458 kts 66°
2026-05-05 14:40 -34.11363 20.35918 30992 ft 459 kts 66°
2026-05-05 14:40 -34.10041 20.39428 31277 ft 459 kts 66°
2026-05-05 14:40 -34.08729 20.42935 31567 ft 459 kts 66°
2026-05-05 14:40 -34.07419 20.46445 31826 ft 459 kts 66°
2026-05-05 14:41 -34.06110 20.49952 32223 ft 455 kts 66°
2026-05-05 14:41 -34.04819 20.53409 32727 ft 451 kts 65°
2026-05-05 14:41 -34.03521 20.56877 32850 ft 454 kts 65°
2026-05-05 14:41 -34.02219 20.60354 33028 ft 456 kts 65°
2026-05-05 14:42 -34.00911 20.63844 33301 ft 456 kts 65°
2026-05-05 14:42 -33.99605 20.67322 33588 ft 456 kts 65°
2026-05-05 14:42 -33.98294 20.70804 33810 ft 456 kts 65°
2026-05-05 14:42 -33.96977 20.74289 34021 ft 457 kts 65°
2026-05-05 14:43 -33.95673 20.77731 34234 ft 457 kts 65°
2026-05-05 14:43 -33.94353 20.81214 34394 ft 458 kts 64°
2026-05-05 14:43 -33.93024 20.84718 34529 ft 460 kts 64°
2026-05-05 14:43 -33.91690 20.88231 34678 ft 461 kts 64°
2026-05-05 14:44 -33.90356 20.91741 34898 ft 461 kts 64°
2026-05-05 14:44 -33.89024 20.95246 35122 ft 460 kts 64°
2026-05-05 14:44 -33.87688 20.98754 35299 ft 461 kts 64°
2026-05-05 14:44 -33.86351 21.02261 35452 ft 461 kts 64°
2026-05-05 14:45 -33.85011 21.05771 35640 ft 461 kts 64°
2026-05-05 14:45 -33.83689 21.09231 35838 ft 461 kts 64°
2026-05-05 14:45 -33.82349 21.12738 36007 ft 461 kts 64°
2026-05-05 14:45 -33.81007 21.16249 36186 ft 461 kts 63°
2026-05-05 14:46 -33.79668 21.19746 36434 ft 459 kts 63°
2026-05-05 14:46 -33.78330 21.23237 36606 ft 459 kts 63°
2026-05-05 14:46 -33.76991 21.26728 36730 ft 461 kts 63°
2026-05-05 14:46 -33.75647 21.30228 36873 ft 461 kts 63°
2026-05-05 14:47 -33.74296 21.33741 37027 ft 462 kts 63°
2026-05-05 14:47 -33.72963 21.37205 37032 ft 464 kts 63°
2026-05-05 14:47 -33.70255 21.44229 37031 ft 462 kts 63°
2026-05-05 14:48 -33.67555 21.51222 37035 ft 460 kts 63°